Location: ???????
(55.5931°N, 39.3286°E)
Time: 21:41:26
(UTC+00:00)

Cosmos 2219 Rocket - Pass Details

Date: 14 April 2024
Orbit: 827 x 845 km, 71.0° (Epoch: 23 May)

Event Time Altitude Azimuth Distance (km) Brightness Sun altitude
Exits shadow 00:27:16 21° 235° (SW) 1,768 3.2 -14.5°
Maximum altitude 00:30:56 61° 310° (NW) 943 2.4 -14.1°
Drops below altitude 10° 00:36:29 10° 31° (NNE) 2,445 5.8 -13.5°
Sets 00:38:59 0° 35° (NE) 3,383 7.0 -13.2°
